Weather History for Ushuaia, Argentina

Change the Weather History Date:

Thursday, February 6, 2014

  Actual Average Record
Temperature  
Mean Temperature 42 °F -  
Max Temperature 52 °F 55 °F 66 °F (2004)
Min Temperature 33 °F 43 °F 33 °F (2014)
Degree Days  
Heating Degree Days 22    
Moisture  
Dew Point 33 °F    
Average Humidity 64    
Maximum Humidity 81    
Minimum Humidity 44    
Precipitation  
Precipitation 0.02 in - - ()
Sea Level Pressure  
Sea Level Pressure 29.06 in    
Wind  
Wind Speed 10 mph ()    
Max Wind Speed 23 mph    
Max Gust Speed 36 mph    
Visibility 9.3 miles    
Events      
Averages and records for this station are not official NWS values.
T = Trace of Precipitation, MM = Missing Value Source: Averaged Metar Reports

Daily Weather History Graph

Daily Weather History Graph

Search for Another Location

Airport:

Trip Planner

Search our weather history database for the weather conditions in past years. The results will help you decide how hot, cold, wet, or windy it might be!

Date:

Astronomy

Feb. 06, 2014 Rise Set
Actual Time 6:07 AM ART 9:25 PM ART
Civil Twilight 5:24 AM ART 10:08 PM ART
Nautical Twilight 4:25 AM ART 11:06 PM ART
Astronomical Twilight 2:56 AM ART 12:31 AM ART
Moon 3:01 PM ART (2/6) No Moon Set
Length of Visible Light 16h 44m
Length of Day
15h 18m
Waxing Crescent, 48% of the Moon is Illuminated
Feb 6
Waxing Crescent
Feb 6
First Quarter
Feb 14
Full
Feb 22
Last Quarter
Mar 1
New

Hourly Weather History & Observations

Time (ART) Temp. Windchill Dew Point Humidity Pressure Visibility Wind Dir Wind Speed Gust Speed Precip Events Conditions
12:00 AM 40 °F - 29 °F 54% 29.26 in 16 mi WSW 23.0 mph - -   Mostly Cloudy
12:00 AM 39.2 °F 28.7 °F 28.4 °F 65% 29.24 in 6.2 mi WSW 23.0 mph 35.7 mph N/A   Mostly Cloudy
1:00 AM 39.2 °F 30.2 °F 30.2 °F 70% 29.24 in 6.2 mi SW 17.3 mph - N/A   Mostly Cloudy
2:00 AM 39.2 °F 32.5 °F 30.2 °F 70% 29.24 in 6.2 mi West 10.4 mph - N/A   Scattered Clouds
3:00 AM 39 °F - 29 °F 58% 29.24 in 19 mi West 9.2 mph - -   Mostly Cloudy
3:00 AM 39.2 °F 33.0 °F 28.4 °F 65% 29.24 in 6.2 mi West 9.2 mph - N/A   Scattered Clouds
4:00 AM 39.2 °F 33.6 °F 30.2 °F 70% 29.21 in 6.2 mi North 8.1 mph - N/A   Scattered Clouds
5:00 AM 39.2 °F 32.0 °F 30.2 °F 70% 29.18 in 6.2 mi North 11.5 mph - N/A   Scattered Clouds
6:00 AM 35 °F - 28 °F 68% 29.19 in 19 mi North 9.2 mph - -   Partly Cloudy
6:00 AM 33.8 °F 26.4 °F 28.4 °F 81% 29.18 in 6.2 mi North 9.2 mph - N/A   Scattered Clouds
7:00 AM 37.4 °F 34.9 °F 30.2 °F 75% 29.15 in 6.2 mi North 3.5 mph - N/A   Mostly Cloudy
8:00 AM 35.6 °F 32.8 °F 30.2 °F 81% 29.12 in 6.2 mi NE 3.5 mph - N/A   Mostly Cloudy
9:00 AM 40 °F - 32 °F 65% 29.11 in 19 mi East 9.2 mph - -   Partly Cloudy
9:00 AM 39.2 °F 33.0 °F 32.0 °F 75% 29.09 in 6.2 mi East 9.2 mph - N/A   Mostly Cloudy
10:00 AM 42.8 °F 40.1 °F 28.4 °F 57% 29.06 in 6.2 mi SE 4.6 mph - N/A   Mostly Cloudy
11:00 AM 44.6 °F 43.1 °F 30.2 °F 57% 29.03 in 6.2 mi SE 3.5 mph - N/A   Mostly Cloudy
12:00 PM 45 °F - 31 °F 47% 29.03 in 19 mi SE 8.1 mph - -   Partly Cloudy
12:00 PM 44.6 °F 40.2 °F 32.0 °F 61% 29.03 in 6.2 mi SE 8.1 mph - N/A   Mostly Cloudy
1:00 PM 46.4 °F 45.2 °F 32.0 °F 57% 29.00 in 6.2 mi Variable 3.5 mph - N/A   Overcast
2:00 PM 44.6 °F 39.2 °F 37.4 °F 76% 28.97 in 6.2 mi SSE 10.4 mph - N/A   Overcast
3:00 PM 51 °F - 36 °F 46% 28.97 in 19 mi SE 8.1 mph - -   Overcast
3:00 PM 50.0 °F - 37.4 °F 62% 28.97 in 6.2 mi SE 8.1 mph - N/A   Overcast
4:00 PM 50.0 °F - 41.0 °F 71% 28.91 in 6.2 mi SSE 5.8 mph - N/A   Overcast
5:00 PM 50.0 °F - 37.4 °F 62% 28.91 in 6.2 mi North 18.4 mph - N/A   Mostly Cloudy
6:00 PM 52 °F - 37 °F 44% 28.91 in 19 mi SSE 9.2 mph - -   Partly Cloudy
6:00 PM 51.8 °F - 37.4 °F 58% 28.91 in 6.2 mi SSE 9.2 mph - N/A   Mostly Cloudy
7:00 PM 51.8 °F - 37.4 °F 58% 28.91 in 6.2 mi NE 3.5 mph - N/A   Mostly Cloudy
8:00 PM 50.0 °F - 39.2 °F 66% 28.91 in 6.2 mi North 3.5 mph - N/A   Mostly Cloudy
9:00 PM 49 °F - 40 °F 61% 28.92 in 19 mi East 3.5 mph - -   Partly Cloudy
9:00 PM 50.0 °F - 39.2 °F 66% 28.91 in 6.2 mi East 3.5 mph - N/A   Mostly Cloudy
10:00 PM 48.2 °F - 39.2 °F 71% 28.91 in 6.2 mi East 4.6 mph - N/A   Mostly Cloudy
11:00 PM 48.2 °F - 39.2 °F 71% 28.91 in 6.2 mi Calm Calm - N/A   Mostly Cloudy